Location: Majestic Skies Ranch
(34.0000°N, 105.9300°W)
Time: 02:44:55
(UTC-06:00)

ISS - Visible Passes

Search period start: 16 April 2014 00:00
Search period end: 26 April 2014 00:00
Orbit: 415 x 420 km, 51.6° (Epoch: 16 April)

Date Brightness Start Highest point End Pass type
(mag) Time Alt. Az. Time Alt. Az. Time Alt. Az.
19 Apr -0.7 21:51:21 10° NNW 21:52:38 17° N 21:52:38 17° N visible
20 Apr -1.0 21:03:29 10° N 21:05:33 15° NNE 21:06:11 15° NE visible
21 Apr -0.6 20:16:19 10° NNE 20:16:53 10° NNE 20:17:27 10° NE visible
21 Apr -1.3 21:50:48 10° NW 21:52:38 29° NW 21:52:38 29° NW visible
22 Apr -2.4 21:02:30 10° NNW 21:05:38 36° NE 21:06:12 33° ENE visible
23 Apr -1.5 20:14:20 10° NNW 20:17:01 22° NE 20:19:41 10° E visible
23 Apr -1.2 21:50:46 10° WNW 21:52:42 25° W 21:52:42 25° W visible
24 Apr -3.1 21:01:59 10° NW 21:05:18 65° SW 21:06:19 39° SSE visible
25 Apr -3.1 20:13:25 10° NW 20:16:44 62° NE 20:19:59 10° ESE visible
